Location: Mentone
(34.5413°N, 85.5351°W)
Time: 13:50:52
(UTC-05:00)

Vanguard 1 - Visible Passes

Search period start: 29 July 2014 00:00
Search period end: 08 August 2014 00:00
Orbit: 650 x 3838 km, 34.2° (Epoch: 26 July)

Date Brightness Start Highest point End Pass type
(mag) Time Alt. Az. Time Alt. Az. Time Alt. Az.
02 Aug 11.7 05:27:28 10° S 05:29:50 13° SSE 05:31:59 10° ESE visible
05 Aug 12.0 04:11:41 10° S 04:14:02 12° SSE 04:16:07 10° SE visible
06 Aug 11.5 04:32:05 12° SSW 04:35:41 19° SSE 04:39:11 10° ESE visible
07 Aug 11.0 04:52:28 12° SSW 04:57:17 27° SSE 05:01:19 10° E visible
